Weather in Kuchasyevo

Russia / Ryazan Oblast     54°06′06″N   41°59′18″E
temp.,
°C
wind,
m/s
gust,
m/s
humid.,
%
clouds,
%
prec.,
mm/h
press.,
hPa
HPBL,
m
17 september, fri
fri1700:00+7nnw2474100 0.0 1019285
03:00+7nw1370100 0.0 1019194
06:00+7n1170100 0.0 101944
09:00+8nnw1164100 0.0 1019435
12:00+10nnw1154100 0.0 10191150
15:00+11nw2251100 0.0 10181256
18:00+9n2455100 0.0 1018231
21:00+8nne2660100 0.0 1019282
18 september, sat
sat1800:00+4ne357425 0.0 102191
03:00+2ne34827 0.0 102178
06:00+1ne248862 0.0 102359
09:00+7ene3458100 0.0 1023467
12:00+11ene3343100 0.0 10231243
15:00+12e2338100 0.0 10221445
18:00+9e2352100 0.0 102254
21:00+7e41161100 0.0 1023379
19 september, sun
sun1900:00+6e3964100 0.0 1024319
03:00+5e3967100 0.0 1023293
06:00+5e41067100 0.0 1023315
09:00+8e5953100 0.0 1023535
12:00+11ese5845100 0.0 1022971
15:00+12e5944100 0.0 10211195
18:00+8ese51176100 0.8 1020691
21:00+7e61490100 3.9 1019681
20 september, mon
mon2000:00+7e61595100 9.1 1017739
03:00+7e61394100 14.3 1016887
06:00+7e61393100 0.4 1015777
09:00+7e61293100 0.5 1015652
12:00+7e61293100 0.1 1015620
15:00+8e61293100 0.2 1014654
18:00+8e61395100 1.1 1014646
21:00+8e61395100 6.6 1013650
21 september, tue
tue2100:00+7ese61294100 0.6 1013615
03:00+7ese51196100 3.9 1012542
06:00+8ese4997100 2.3 1011494
09:00+8ese4895100 3.2 1011393
12:00+9se3795100 0.3 1010386
15:00+11sse2392100 0.8 1010372
18:00+10sse2393100 0.3 101165
21:00+9ssw3794100 0.5 1012332